Live Position
Loading 3D Globe...
About Flock 4g-4
Group: 3 satellites
Description loading...
Upcoming Passes
Passes for default location (London). Set your location on the main map for personalized predictions.
Altitude History
Loading altitude history...
No altitude history available
Two-Line Element Set
1 62659U 25009BC 26105.18241532 .00004746 00000-0 17841-3 0 9999
2 62659 97.3961 186.9198 0003127 157.6798 202.4578 15.27638382126881
Epoch: Apr 15, 2026 •
Age: 20 hours
Current Status
Altitude 502.5 km
Velocity 7.61 km/s
Sub-Earth Point -45.40°S,
18.13°W
Launch Date Jan 14, 2025
Age 1.2 years
Type earth observation
Technical Details
Classification Payload
Mass 5.70 kg
Dry Mass 5.70 kg
Total Mass 5.70 kg
Length 0.30 m
Diameter 0.10 m
Span 0.30 m
Shape Box+2 pan
Manufacturer PLAN
Bus Type Cubesat 3U
Phase Status In Orbit
Owner/State PLAN/US
Most Searched
Loading...